When you browse on this site, cookies collect data to enhance your experience and personalize the content and advertising you see.
Visit our Privacy Policy to learn more. By continuing to use the site, you agree to this use of cookies and data.
  • In Spain
  • List of Countries
  • For 7 days
  • Water Temperature
  • Weather Map
  • Weather Widgets
  • user-avatar
    Login

    Hourly Weather Gitega

    Today, 20 February, Thursday

    Time Temperature Precipitation Wind Pressure Humidity
    00:00 +18°C° 0 mm 1 mps 622 mmHg 90%
    01:00 +18°C° 0 mm 1 mps 622 mmHg 90%
    02:00 +16°C° 0 mm 1 mps 622 mmHg 89%
    03:00 +16°C° 0.1 mm 1 mps 622 mmHg 89%
    04:00 +16°C° 0.1 mm 1 mps 622 mmHg 89%
    05:00 +15°C° 0.1 mm 0 mps 622 mmHg 89%
    06:00 +18°C° 0 mm 1 mps 623 mmHg 87%
    07:00 +19°C° 0 mm 1 mps 624 mmHg 86%
    08:00 +21°C° 0 mm 1 mps 625 mmHg 83%
    09:00 +22°C° 0.3 mm 1 mps 625 mmHg 76%
    10:00 +24°C° 0.3 mm 1 mps 625 mmHg 70%
    11:00 +26°C° 0.3 mm 2 mps 625 mmHg 63%
    12:00 +26°C° 0.6 mm 2 mps 624 mmHg 65%
    13:00 +26°C° 0.6 mm 2 mps 624 mmHg 67%
    14:00 +25°C° 0 mm 2 mps 623 mmHg 69%
    15:00 +25°C° 0.5 mm 2 mps 623 mmHg 72%
    16:00 +25°C° 0.5 mm 2 mps 623 mmHg 74%
    17:00 +24°C° 0.5 mm 1 mps 622 mmHg 77%
    18:00 +22°C° 1.2 mm 1 mps 622 mmHg 81%
    19:00 +21°C° 1.2 mm 1 mps 622 mmHg 86%
    20:00 +17°C° 1.2 mm 0 mps 622 mmHg 90%
    21:00 +17°C° 0.5 mm 0 mps 622 mmHg 90%
    22:00 +17°C° 0.5 mm 0 mps 622 mmHg 90%
    23:00 +16°C° 0.5 mm 0 mps 622 mmHg 89%

    Tomorrow, 21 February, Friday

    Time Temperature Precipitation Wind Pressure Humidity
    00:00 +18°C° 0 mm 1 mps 622 mmHg 90%
    01:00 +18°C° 0 mm 1 mps 622 mmHg 90%
    02:00 +18°C° 0 mm 1 mps 622 mmHg 90%
    03:00 +16°C° 0 mm 1 mps 621 mmHg 90%
    04:00 +16°C° 0 mm 1 mps 621 mmHg 90%
    05:00 +15°C° 0 mm 0 mps 621 mmHg 90%
    06:00 +16°C° 0 mm 0 mps 622 mmHg 87%
    07:00 +18°C° 0 mm 0 mps 623 mmHg 85%
    08:00 +19°C° 0 mm 0 mps 625 mmHg 82%
    15:00 +25°C° 1.7 mm 2 mps 623 mmHg 74%
    16:00 +24°C° 1.7 mm 1 mps 622 mmHg 81%
    17:00 +22°C° 1.7 mm 1 mps 621 mmHg 87%
    18:00 +19°C° 0 mm 0 mps 622 mmHg 88%
    19:00 +19°C° 0 mm 0 mps 622 mmHg 89%
    20:00 +18°C° 0 mm 0 mps 622 mmHg 89%
    21:00 +17°C° 0 mm 0 mps 622 mmHg 89%
    22:00 +17°C° 0 mm 0 mps 622 mmHg 90%
    23:00 +16°C° 0 mm 0 mps 622 mmHg 90%

    Day after tomorrow, 22 February, Saturday

    Time Temperature Precipitation Wind Pressure Humidity
    00:00 +18°C° 0 mm 1 mps 622 mmHg 90%
    01:00 +18°C° 0 mm 1 mps 621 mmHg 90%
    02:00 +18°C° 0 mm 1 mps 621 mmHg 90%
    03:00 +16°C° 0 mm 1 mps 621 mmHg 90%
    04:00 +16°C° 0 mm 1 mps 621 mmHg 90%
    05:00 +16°C° 0 mm 1 mps 621 mmHg 90%
    06:00 +17°C° 0 mm 0 mps 622 mmHg 87%
    07:00 +18°C° 0 mm 0 mps 623 mmHg 84%
    08:00 +20°C° 0 mm 0 mps 624 mmHg 81%
    09:00 +23°C° 0.2 mm 1 mps 624 mmHg 73%
    10:00 +25°C° 0.2 mm 1 mps 624 mmHg 66%
    11:00 +27°C° 0.2 mm 2 mps 625 mmHg 58%
    12:00 +27°C° 0.5 mm 2 mps 624 mmHg 61%
    13:00 +26°C° 0.5 mm 2 mps 623 mmHg 64%
    14:00 +26°C° 0.5 mm 3 mps 622 mmHg 67%
    15:00 +26°C° 1.8 mm 2 mps 622 mmHg 72%
    16:00 +25°C° 1.8 mm 1 mps 622 mmHg 77%
    17:00 +24°C° 1.8 mm 1 mps 621 mmHg 82%
    18:00 +23°C° 0.4 mm 1 mps 621 mmHg 84%
    19:00 +20°C° 0.4 mm 0 mps 622 mmHg 85%
    20:00 +18°C° 0.4 mm 0 mps 622 mmHg 86%
    21:00 +18°C° 0.9 mm 0 mps 622 mmHg 87%
    22:00 +17°C° 0.9 mm 0 mps 622 mmHg 89%
    23:00 +17°C° 0.9 mm 0 mps 622 mmHg 90%

    23 February, Sunday

    Time Temperature Precipitation Wind Pressure Humidity
    00:00 +17°C° 0.6 mm 0 mps 622 mmHg 90%
    01:00 +17°C° 0.6 mm 0 mps 621 mmHg 91%
    02:00 +19°C° 0.6 mm 1 mps 621 mmHg 91%
    03:00 +19°C° 0 mm 1 mps 621 mmHg 90%
    04:00 +18°C° 0 mm 1 mps 621 mmHg 89%
    05:00 +18°C° 0 mm 1 mps 621 mmHg 89%
    06:00 +19°C° 0 mm 1 mps 622 mmHg 88%
    07:00 +20°C° 0 mm 1 mps 623 mmHg 88%
    08:00 +21°C° 0 mm 1 mps 623 mmHg 87%
    09:00 +22°C° 0.9 mm 1 mps 624 mmHg 84%
    10:00 +23°C° 0.9 mm 1 mps 624 mmHg 80%
    11:00 +24°C° 0.9 mm 1 mps 624 mmHg 76%
    12:00 +25°C° 1.2 mm 1 mps 623 mmHg 75%
    13:00 +25°C° 1.2 mm 1 mps 623 mmHg 73%
    14:00 +25°C° 1.2 mm 1 mps 622 mmHg 71%
    15:00 +25°C° 1.7 mm 1 mps 622 mmHg 75%
    16:00 +24°C° 1.7 mm 1 mps 622 mmHg 79%
    17:00 +22°C° 1.7 mm 0 mps 622 mmHg 83%
    18:00 +22°C° 0.4 mm 1 mps 622 mmHg 84%
    19:00 +21°C° 0.4 mm 1 mps 622 mmHg 86%
    20:00 +20°C° 0.4 mm 1 mps 622 mmHg 87%
    21:00 +19°C° 0.1 mm 1 mps 622 mmHg 88%
    22:00 +19°C° 0.1 mm 1 mps 622 mmHg 89%
    23:00 +19°C° 0.1 mm 1 mps 622 mmHg 91%

    24 February, Monday

    Time Temperature Precipitation Wind Pressure Humidity
    00:00 +19°C° 0 mm 1 mps 622 mmHg 91%
    01:00 +18°C° 0 mm 1 mps 622 mmHg 91%
    02:00 +18°C° 0 mm 1 mps 622 mmHg 91%
    03:00 +18°C° 0 mm 1 mps 622 mmHg 91%
    04:00 +16°C° 0 mm 0 mps 622 mmHg 91%
    05:00 +16°C° 0 mm 0 mps 622 mmHg 91%
    06:00 +17°C° 0.3 mm 0 mps 623 mmHg 90%
    07:00 +18°C° 0.3 mm 0 mps 623 mmHg 89%
    08:00 +19°C° 0.3 mm 0 mps 624 mmHg 88%
    09:00 +20°C° 1.7 mm 0 mps 624 mmHg 84%
    10:00 +23°C° 1.7 mm 1 mps 625 mmHg 79%
    11:00 +24°C° 1.7 mm 1 mps 625 mmHg 75%
    12:00 +24°C° 1.6 mm 1 mps 624 mmHg 79%
    13:00 +23°C° 1.6 mm 1 mps 623 mmHg 83%
    14:00 +22°C° 1.6 mm 1 mps 622 mmHg 87%
    15:00 +21°C° 0.4 mm 1 mps 622 mmHg 88%
    16:00 +21°C° 0.4 mm 1 mps 622 mmHg 88%
    17:00 +19°C° 0.4 mm 0 mps 621 mmHg 89%
    18:00 +18°C° 0 mm 0 mps 622 mmHg 89%
    19:00 +20°C° 0 mm 1 mps 622 mmHg 90%
    20:00 +19°C° 0 mm 1 mps 622 mmHg 90%
    21:00 +19°C° 0 mm 1 mps 623 mmHg 90%
    22:00 +19°C° 0 mm 1 mps 623 mmHg 91%
    23:00 +19°C° 0 mm 1 mps 623 mmHg 91%

    25 February, Tuesday

    Time Temperature Precipitation Wind Pressure Humidity
    00:00 +19°C° 0 mm 1 mps 623 mmHg 91%
    01:00 +18°C° 0 mm 1 mps 622 mmHg 92%
    02:00 +18°C° 0 mm 1 mps 622 mmHg 92%
    03:00 +18°C° 0 mm 1 mps 622 mmHg 92%
    04:00 +18°C° 0 mm 1 mps 622 mmHg 92%
    05:00 +18°C° 0 mm 1 mps 622 mmHg 92%
    06:00 +19°C° 0 mm 1 mps 623 mmHg 91%
    07:00 +20°C° 0 mm 1 mps 624 mmHg 90%
    08:00 +20°C° 0 mm 1 mps 624 mmHg 89%
    09:00 +21°C° 1.1 mm 1 mps 624 mmHg 86%
    10:00 +22°C° 1.1 mm 1 mps 625 mmHg 84%
    11:00 +23°C° 1.1 mm 1 mps 625 mmHg 82%
    12:00 +23°C° 2 mm 1 mps 624 mmHg 82%
    13:00 +23°C° 2 mm 2 mps 624 mmHg 82%
    14:00 +23°C° 2 mm 2 mps 624 mmHg 82%
    15:00 +22°C° 1.7 mm 1 mps 623 mmHg 86%
    16:00 +21°C° 1.7 mm 1 mps 623 mmHg 89%
    17:00 +20°C° 1.7 mm 1 mps 622 mmHg 93%
    18:00 +20°C° 0.8 mm 1 mps 622 mmHg 93%
    19:00 +19°C° 0.8 mm 1 mps 623 mmHg 93%
    20:00 +19°C° 0.8 mm 1 mps 623 mmHg 94%
    21:00 +18°C° 0.1 mm 1 mps 623 mmHg 94%
    22:00 +16°C° 0.1 mm 0 mps 623 mmHg 94%
    23:00 +15°C° 0.1 mm 0 mps 623 mmHg 95%
    Show more